{"data":{"norad_id":56898,"epoch":"2026-09-19T19:07:59.538432Z","epoch_age_seconds":178688,"freshness":"STALE","line1":"1 56898U 23083Y   26262.79721688  .00000261  00000+0  19005-4 0  9995","line2":"2 56898  43.0027  65.8176 0001804 265.6975  94.3670 15.27578192181466","mean_motion":15.27578192,"eccentricity":0.0001804,"inclination_deg":43.0027,"raan_deg":65.8176,"arg_perigee_deg":265.6975,"mean_anomaly_deg":94.367,"bstar":1.9005e-5,"rev_number":18146,"period_min":94.266860285212,"perigee_km":481.81675089904,"apogee_km":484.29226879579,"semimajor_km":6861.1915098474,"source":"CELESTRAK","updated_at":"2026-09-21T09:00:33.524107Z"}}